Home   Weather   Lüneburg   Past weeks

Flag for Germany Past Weather in Lüneburg, Lower Saxony, Germany — Yesterday and Last 2 Weeks

Now
16 °F

Cold.


Feels Like: 8 °F
Forecast: 27 / 37 °F
Wind: 5 mph from East

Location: Fassberg

Current Time: Dec 5, 2016 at 3:39:32 am

Latest Report: Dec 5, 2016 at 2:20 am


Visibility: N/A

Pressure: 30.39 "Hg

Humidity: 93%

Dew Point: 14 °F

Location of LüneburgLocation

Past Weather in Lüneburg — Graph

°F

Lüneburg Temperature Yesterday

Maximum temperature yesterday: 32 °F (at 1:20 pm)
Minimum temperature yesterday: 18 °F (at 11:20 pm)
Average temperature yesterday: 24 °F

High & Low Weather Summary for the Past Weeks

 TemperatureHumidityPressure
High59 °F (Nov 21, 11:20 am)100% (Nov 22, 8:20 pm)30.57 "Hg (Nov 22, 8:20 pm)
Low14 °F (Nov 29, 4:20 am)49% (Dec 2, 2:20 pm)29.39 "Hg (Nov 20, 3:20 pm)
Average36 °F87%30.14 "Hg
* Reported Nov 20 2:20 am — Dec 5 2:20 am, Lüneburg, Weather by CustomWeather, © 2016

Note: Actual official high and low records may vary slightly from our data, if they occured in-between our weather recording intervals... More about our weather records

Advertising

Lüneburg Weather History for the Previous 24 Hours

Scroll right to see more
 ConditionsComfort  
Time TempWeatherWind HumidityBarometerVisibility
2:20 am
Mon, Dec 5
16 °FCold.5 mph93%30.39 "HgN/A
1:20 am18 °FPassing clouds.1 mph86%30.39 "Hg4 mi
12:20 am18 °FPassing clouds.1 mph93%30.39 "Hg4 mi
11:20 pm
Sun, Dec 4
18 °FIce fog.3 mph93%30.39 "Hg3 mi
10:50 pm19 °FIce fog.2 mph93%30.39 "Hg3 mi
10:20 pm19 °FIce fog.1 mph93%30.39 "Hg2 mi
9:20 pm21 °FIce fog.2 mph93%30.42 "Hg1 mi
8:20 pm21 °FLight fog.3 mph100%30.42 "Hg1 mi
7:20 pm25 °FIce fog.1 mph93%30.42 "Hg0 mi
6:20 pm25 °FIce fog.3 mph93%30.42 "Hg0 mi
5:20 pm27 °FIce fog.No wind93%30.42 "Hg0 mi
4:20 pm28 °FIce fog.No wind93%30.42 "Hg0 mi
3:20 pm32 °FIce fog.1 mph93%30.42 "Hg1 mi
2:20 pm32 °FIce fog.1 mph93%30.42 "Hg1 mi
1:20 pm32 °FIce fog.1 mph93%30.42 "Hg1 mi
12:20 pm28 °FIce fog.2 mph93%30.42 "Hg1 mi
11:20 am27 °FIce fog.1 mph100%30.42 "Hg3 mi
10:50 am25 °FIce fog.No wind100%30.42 "Hg2 mi
10:20 am25 °FIce fog.2 mph93%30.42 "Hg1 mi
9:50 am23 °FIce fog.No wind93%30.42 "Hg1 mi
9:20 am21 °FIce fog.1 mph93%30.42 "Hg0 mi
8:20 am21 °FIce fog.No wind93%30.39 "Hg0 mi
7:20 am21 °FIce fog.No wind93%30.39 "Hg0 mi
6:20 am21 °FIce fog.1 mph93%30.36 "Hg0 mi
5:20 am23 °FIce fog.1 mph93%30.36 "Hg0 mi
4:20 am23 °FIce fog.No wind93%30.36 "Hg0 mi
3:20 am23 °FIce fog.No wind93%30.36 "Hg0 mi
Weather by CustomWeather, © 2016

See weather overviewHow to use our weather pages